User: anonymous   Login
Location: Remedello Sotto
(45.2500°N, 10.3667°E)
Time: 04:27:42
(UTC+00:00)
Language:

Cosmos 1825 - Orbit

View from above orbital plane
View from above orbital plane
View from above satellite
View from above satellite

Ground track
Ground track

The orbit data is extracted from the following two-line orbital elements,

1 17566U 87024A   23154.44891039  .00010866  00000-0  38678-3 0  9995
2 17566  82.5015 284.4632 0003892 155.6946 204.4477 15.28818568984466
Epoch (UTC): 03 June 2023 10:46:25
Eccentricity: 0.0003892
inclination: 82.5015°
perigee height: 476 km
apogee height: 482 km
right ascension of ascending node: 284.4632°
argument of perigee: 155.6946°
revolutions per day: 15.28818568
mean anomaly at epoch: 204.4477°
orbit number at epoch: 98446

The dashed part of the orbit path shows where the satellite is in the earth's shadow,  

DLR